This is the latest recevied weather packets stored in our database for station/object DC0PP-10. If no packets are shown the sender has not sent any weather packets the latest 10 day(s).
| Time | Temp. | Humidity | Pressure | Rain* | Wind** | Luminosity | Snow |
|---|---|---|---|---|---|---|---|
| 1778209858 | 8.89° C | 100% | 1018 hPa | - | - | - | - |
| 1778208958 | 8.89° C | 100% | 1018 hPa | - | - | - | - |
| 1778208058 | 8.33° C | 100% | 1017.9 hPa | - | - | - | - |
| 1778207157 | 8.89° C | 100% | 1018 hPa | - | - | - | - |
| 1778206257 | 8.89° C | 100% | 1018 hPa | - | - | - | - |
| 1778205357 | 8.89° C | 100% | 1017.9 hPa | - | - | - | - |
| 1778204457 | 9.44° C | 100% | 1018 hPa | - | - | - | - |
| 1778203556 | 9.44° C | 100% | 1017.9 hPa | - | - | - | - |
| 1778202655 | 8.89° C | 100% | 1017.9 hPa | - | - | - | - |
| 1778201755 | 9.44° C | 100% | 1017.9 hPa | - | - | - | - |
| 1778200854 | 9.44° C | 100% | 1018 hPa | - | - | - | - |
| 1778199959 | 10° C | 100% | 1018 hPa | - | - | - | - |
| 1778199059 | 10° C | 98% | 1018 hPa | - | - | - | - |
| 1778198159 | 10° C | 100% | 1018.1 hPa | - | - | - | - |
| 1778197259 | 10° C | 100% | 1018.3 hPa | - | - | - | - |
| 1778196358 | 10.56° C | 100% | 1018.3 hPa | - | - | - | - |
| 1778195458 | 10.56° C | 98% | 1018.5 hPa | - | - | - | - |
| 1778194558 | 11.11° C | 97% | 1018.5 hPa | - | - | - | - |
| 1778193657 | 11.11° C | 97% | 1018.6 hPa | - | - | - | - |
| 1778192757 | 11.11° C | 98% | 1018.5 hPa | - | - | - | - |
| 1778191857 | 11.67° C | 97% | 1018.5 hPa | - | - | - | - |
| 1778190957 | 12.22° C | 94% | 1018.4 hPa | - | - | - | - |
| 1778190057 | 12.22° C | 96% | 1018.3 hPa | - | - | - | - |
| 1778189156 | 12.22° C | 96% | 1018.4 hPa | - | - | - | - |
| 1778188256 | 12.22° C | 96% | 1018.3 hPa | - | - | - | - |
* Rain since midnight (hover to see other rain measurements)
** Current wind speed in m/s (hover to see current wind gust speed)